Regional Weather Roundup
Issued by NWS

Home | Current Version | Previous Version | Text Only | Print | Product List | Glossary On
Versions: 1 2 3 4 5 6 7 8 9 10 11 12 13 14 15 16 17 18 19 20 21 22 23 24 25 26 27 28 29 30 31 32 33 34 35 36 37 38 39 40 41 42 43 44 45 46 47 48 49 50
000
ASUS43 KDMX 021607
RWRIA

WEATHER ROUNDUP FOR IOWA
NATIONAL WEATHER SERVICE DES MOINES IA
1000 AM CST MON MAR 02 2015

NOTE: "FAIR" INDICATES FEW OR NO CLOUDS BELOW 12,000 FEET WITH NO
SIGNIFICANT WEATHER AND/OR OBSTRUCTIONS TO VISIBILITY.

* - THESE STATIONS ARE NOT NWS STATIONS...THUS NOT UNDER NWS
QUALITY CONTROL.  THEY ALSO DO NOT REPORT WEATHER SUCH
AS PRECIPITATION OR FOG.

IAZ001>003-012>014-020>022-031>034-043>046-021700-
   NORTHWEST IOWA

CITY           SKY/WX    TMP DP  RH WIND       PRES   REMARKS
CARROLL *      PTSUNNY   25  18  74 SE10      30.47F WCI  15
CHEROKEE *     MOSUNNY   23  16  74 S13       30.46F WCI  11
DENISON *      PTSUNNY   27  19  74 SE9       30.44F WCI  17
LE MARS *      MOSUNNY   23  18  80 SE12      30.45F WCI  12
ORANGE CITY *  MOSUNNY   23  12  63 S10       30.43F WCI  12
SHELDON *      SUNNY     21  12  68 SE14      30.43F WCI   8
SIOUX CITY     CLOUDY    27  17  66 SE14      30.46S WCI  16
SPENCER        SUNNY     20  11  68 S13       30.46F WCI   7
STORM LAKE *   SUNNY     21  14  73 S14       30.45F WCI   8
$$

IAZ055>058-069>071-079>083-090>094-021700-
   SOUTHWEST IOWA

CITY           SKY/WX    TMP DP  RH WIND       PRES   REMARKS
ATLANTIC *     CLOUDY    28  19  69 E12       30.46F WCI  18
AUDUBON *      MOSUNNY   27  18  69 SE8       30.47F WCI  18
CLARINDA *     PTSUNNY   32  18  55 SE7       30.50S WCI  26
COUNCIL BLFS * PTSUNNY   28  19  69 SE14      30.44F WCI  17
CRESTON *      MOSUNNY   27  18  69 E12       30.47F WCI  16
HARLAN  *      PTSUNNY   27  23  86 SE10      30.49F WCI  17
LAMONI         PTSUNNY   27  18  69 E7        30.49S WCI  19
RED OAK *      CLOUDY    28  19  69 SE8       30.48S WCI  20
SHENANDOAH *   CLOUDY    30  19  64 SE9       30.48S WCI  22
$$

IAZ047>049-059>061-072>074-084-021700-
   CENTRAL IOWA

CITY           SKY/WX    TMP DP  RH WIND       PRES   REMARKS
AMES           MOSUNNY   23  14  68 CALM      30.51F
ANKENY *       SUNNY     25  14  63 E5        30.52F WCI  19
CHARITON *     SUNNY     25  14  63 E5        30.51S WCI  19
DES MOINES     PTSUNNY   26  12  55 SE7       30.52S WCI  18
GRINNELL*      MOSUNNY   21  14  73 N3        30.52F
KNOXVILLE *    SUNNY     27  12  54 VRB6      30.51R WCI  20
MARSHALLTOWN   SUNNY     14  11  87 NW3       30.52R
PELLA *        SUNNY     27  16  63 E5        30.53F WCI  21
PERRY *          N/A     27  18  69 SE8       30.50F WCI  18
$$

IAZ004>006-015-016-023>025-035-036-021700-
   NORTH CENTRAL IOWA

CITY           SKY/WX    TMP DP  RH WIND       PRES   REMARKS
ALGONA *       SUNNY     19  12  73 S8        30.49S WCI   9
CLARION *      SUNNY     16  14  93 S5        30.50F WCI   9
ESTHERVILLE    SUNNY     18  13  80 S12       30.46S WCI   5
FORT DODGE *   SUNNY     19  10  68 CALM      30.50F
MASON CITY     SUNNY     14  10  84 CALM      30.50S
FOREST CITY *  SUNNY     14  10  85 CALM      30.49S
IOWA FALLS *     N/A     14  12  92 CALM      30.52S FOG
$$

IAZ007>011-017>019-026>030-037>042-050>054-066-021700-
   NORTHEAST IOWA

CITY           SKY/WX    TMP DP  RH WIND       PRES   REMARKS
CEDAR RAPIDS   SUNNY     16  11  80 NW9       30.52R WCI   4
CHARLES CITY * SUNNY     12  10  92 CALM      30.50F
CLINTON *      SUNNY     10   9  92 CALM      30.56S
DECORAH *      SUNNY     14   7  73 CALM      30.48F
DUBUQUE        SUNNY     15   9  76 CALM      30.50S
MONTICELLO *   SUNNY     14  12  92 MISG      30.52S
OELWEIN *      SUNNY     12   9  85 CALM      30.51S
WATERLOO       SUNNY     12   8  84 CALM      30.53S
$$

IAZ064-065-067-068-078-021700-
   EAST CENTRAL IOWA

CITY           SKY/WX    TMP DP  RH WIND       PRES   REMARKS
DAVENPORT      SUNNY     17  10  74 N8        30.53S WCI   7
IOWA CITY      SUNNY     21  13  71 CALM      30.55S
MT. PLEASANT * SUNNY     21  12  68 N3        30.54S
MUSCATINE *    SUNNY     23  12  63 N5        30.56S WCI  17
QUAD CITIES    SUNNY     25  12  58 N3        30.53S
$$

IAZ062-063-075>077-085>089-095>099-021700-
   SOUTHEAST IOWA

CITY           SKY/WX    TMP DP  RH WIND       PRES   REMARKS
BURLINGTON     SUNNY     25  13  60 CALM      30.53S
FAIRFIELD *    SUNNY     23  14  68 CALM      30.53S
FORT MADISON * SUNNY     25  14  63 CALM      30.54S
KEOKUK *       SUNNY     25  14  63 SE3       30.54S
OSKALOOSA *      N/A     25  14  63 E5        30.52S WCI  19
CENTERVILLE *  SUNNY     27  18  69 NE7       30.52S WCI  19
OTTUMWA        SUNNY     23  14  68 E6        30.52F WCI  16
WASHINGTON *   SUNNY     23  18  80 N7        30.53F WCI  15
$$

ABBREVIATIONS USED IN REMARKS
   TC - TEMPERATURES IN CELSIUS
  WCI - WIND CHILL INDEX
   HX - HEAT INDEX
  VSB - VISIBILITY
$$



USA.gov is the U.S. government's official web portal to all federal, state and local government web resources and services.